This is the latest recevied weather packets stored in our database for station/object N8QQQ. If no packets are shown the sender has not sent any weather packets the latest 1 day(s).
| Time | Temp. | Humidity | Pressure | Rain* | Wind** | Luminosity | Snow |
|---|---|---|---|---|---|---|---|
| 1778071808 | 0.56° C | 69% | 1011.3 hPa | 0 mm | - | 46 W/m² | - |
| 1778070901 | 0.56° C | 70% | 1011.2 hPa | 0 mm | - | 37 W/m² | - |
| 1778070295 | 0.56° C | 71% | 1011 hPa | 0 mm | - | 32 W/m² | - |
| 1778067271 | 0° C | 75% | 1010.6 hPa | 0 mm | - | 13 W/m² | - |
| 1778066967 | 0° C | 74% | 1010.8 hPa | 0 mm | - | 12 W/m² | - |
| 1778066665 | 0° C | 75% | 1010.6 hPa | 0 mm | - | 11 W/m² | - |
| 1778066060 | 0° C | 75% | 1010.6 hPa | 0 mm | - | 8 W/m² | - |
| 1778064847 | -0.56° C | 76% | 1010.5 hPa | 0 mm | - | 3 W/m² | - |
| 1778063940 | -0.56° C | 77% | 1010.5 hPa | 0 mm | - | 1 W/m² | - |
| 1778063637 | -0.56° C | 77% | 1010.7 hPa | 0 mm | - | 1 W/m² | - |
| 1778063334 | -0.56° C | 76% | 1010.2 hPa | 0 mm | - | 1 W/m² | - |
| 1778062729 | -0.56° C | 77% | 1010.3 hPa | 0 mm | - | 0 W/m² | - |
| 1778062123 | -0.56° C | 76% | 1010.3 hPa | 0 mm | - | 0 W/m² | - |
| 1778060913 | -0.56° C | 78% | 1010.4 hPa | 0 mm | - | 0 W/m² | - |
| 1778060612 | -0.56° C | 79% | 1010.5 hPa | 0 mm | - | 0 W/m² | - |
| 1778059704 | -0.56° C | 78% | 1010.3 hPa | 0 mm | - | 0 W/m² | - |
| 1778059402 | -0.56° C | 79% | 1010.2 hPa | 0 mm | - | 0 W/m² | - |
| 1778058796 | -0.56° C | 78% | 1010.1 hPa | 0 mm | - | 0 W/m² | - |
| 1778058494 | -0.56° C | 77% | 1010.2 hPa | 0 mm | - | 0 W/m² | - |
| 1778058191 | -1.11° C | 78% | 1010.2 hPa | 0 mm | - | 0 W/m² | - |
| 1778056976 | -1.11° C | 81% | 1010.2 hPa | 0 mm | - | 0 W/m² | - |
| 1778055462 | -2.22° C | 90% | 1010.3 hPa | 0 mm | - | 0 W/m² | - |
| 1778055159 | -2.22° C | 90% | 1010.2 hPa | 0 mm | - | 0 W/m² | - |
| 1778053342 | -3.33° C | 91% | 1010.2 hPa | 0 mm | - | 0 W/m² | - |
| 1778053040 | -3.33° C | 91% | 1010.2 hPa | 0 mm | - | 0 W/m² | - |
* Rain latest hour (hover to see other rain measurements)
** Current wind speed in m/s (hover to see current wind gust speed)